User: anonymous   Login
Location: Bothwell
(42.3833°S, 147.0000°E)
Time: 00:51:10
(UTC+10:00)
Language:

LO-87 - Orbit

View from above orbital plane
View from above orbital plane
View from above satellite
View from above satellite

Ground track
Ground track

The orbit data is extracted from the following two-line orbital elements,

1 41557U 16033B   22274.12895138  .00016743  00000-0  46232-3 0  9990
2 41557  97.3902  12.1814 0010062   5.7789  89.3955 15.37090709353603
Epoch (UTC): 01 October 2022 03:05:41
Eccentricity: 0.0010062
inclination: 97.3902°
perigee height: 448 km
apogee height: 461 km
right ascension of ascending node: 12.1814°
argument of perigee: 5.7789°
revolutions per day: 15.37090709
mean anomaly at epoch: 89.3955°
orbit number at epoch: 35360

The dashed part of the orbit path shows where the satellite is in the earth's shadow,  

DLR